Weather History for KMMU - July, 2013

Change the Weather History Date:

Monday, July 8, 2013

  Actual Average Record
Temperature  
Mean Temperature 78 °F -  
Max Temperature 87 °F 84 °F 98 °F (1986)
Min Temperature 69 °F 59 °F 48 °F (1948)
Cooling Degree Days 13    
Growing Degree Days 28 (Base 50)    
Moisture  
Dew Point 68 °F    
Average Humidity 77    
Maximum Humidity 94    
Minimum Humidity 49    
Precipitation  
Precipitation 0.20 in - - ()
Sea Level Pressure  
Sea Level Pressure 30.02 in    
Wind  
Wind Speed 2 mph (WSW)    
Max Wind Speed 12 mph    
Max Gust Speed 18 mph    
Visibility 10 miles    
Events      
Averages and records for this station are not official NWS values.
T = Trace of Precipitation, MM = Missing Value Source: NWS Daily Summary

Daily Weather History Graph

Daily Weather History Graph

Search for Another Location

Airport or City:

Trip Planner

Search our weather history database for the weather conditions in past years. The results will help you decide how hot, cold, wet, or windy it might be!

Date:

Astronomy

Jul. 08, 2013 Rise Set
Actual Time 5:34 AM EDT 8:31 PM EDT
Civil Twilight 5:01 AM EDT 9:03 PM EDT
Nautical Twilight 4:19 AM EDT 9:45 PM EDT
Astronomical Twilight 3:30 AM EDT 10:33 PM EDT
Moon 6:01 AM EDT (7/8) 8:31 PM EDT (7/8)
Length of Visible Light 16h 02m
Length of Day
14h 56m
New Moon, 0% of the Moon is Illuminated
Jul 8
New Moon
Jul 15
First Quarter
Jul 22
Full
Jul 29
Last Quarter
Aug 6
New

Hourly Weather History & Observations

Time (EDT) Temp. Heat Index Dew Point Humidity Pressure Visibility Wind Dir Wind Speed Gust Speed Precip Events Conditions
12:15 AM 73.4 °F - 69.8 °F 88% 30.00 in 10.0 mi Calm Calm - 0.01 in   Clear
12:35 AM 73.4 °F - 69.8 °F 88% 30.00 in 10.0 mi Calm Calm - 0.02 in   Clear
12:55 AM 73.4 °F - 69.8 °F 88% 30.00 in 10.0 mi Calm Calm - 0.01 in   Clear
1:15 AM 73.4 °F - 69.8 °F 88% 30.00 in 10.0 mi SW 4.6 mph - 0.02 in   Clear
1:35 AM 73.4 °F - 69.8 °F 88% 30.00 in 10.0 mi Calm Calm - 0.04 in   Clear
1:55 AM 73.4 °F - 69.8 °F 88% 30.01 in 10.0 mi SW 3.5 mph - N/A   Clear
2:15 AM 73.4 °F - 68.0 °F 83% 30.00 in 10.0 mi SW 3.5 mph - 0.02 in   Clear
2:35 AM 71.6 °F - 68.0 °F 88% 30.00 in 10.0 mi Calm Calm - 0.04 in   Clear
2:55 AM 71.6 °F - 68.0 °F 88% 30.00 in 10.0 mi Calm Calm - 0.01 in   Clear
3:15 AM 71.6 °F - 68.0 °F 88% 30.00 in 10.0 mi Calm Calm - 0.03 in   Clear
3:35 AM 71.6 °F - 68.0 °F 88% 30.00 in 10.0 mi Calm Calm - 0.06 in   Clear
3:55 AM 71.6 °F - 68.0 °F 88% 30.00 in 10.0 mi Calm Calm - 0.01 in   Clear
4:15 AM 71.6 °F - 68.0 °F 88% 30.00 in 10.0 mi Calm Calm - 0.03 in   Clear
4:35 AM 71.6 °F - 68.0 °F 88% 30.01 in 10.0 mi Calm Calm - 0.05 in   Clear
4:55 AM 71.6 °F - 68.0 °F 88% 30.02 in 10.0 mi Calm Calm - N/A   Clear
5:15 AM 69.8 °F - 68.0 °F 94% 30.02 in 10.0 mi Calm Calm - N/A   Clear
5:35 AM 69.8 °F - 68.0 °F 94% 30.02 in 10.0 mi Calm Calm - N/A   Clear
5:55 AM 69.8 °F - 68.0 °F 94% 30.03 in 7.0 mi Calm Calm - N/A   Clear
6:15 AM 71.6 °F - 68.0 °F 88% 30.03 in 10.0 mi Calm Calm - N/A   Clear
6:45 AM 69.8 °F - 66.2 °F 88% 30.04 in 10.0 mi SSW 4.6 mph - N/A   Partly Cloudy
7:45 AM 73.4 °F - 68.0 °F 83% 30.04 in 10.0 mi WNW 5.8 mph - N/A   Partly Cloudy
8:45 AM 77.0 °F - 69.8 °F 78% 30.05 in 10.0 mi WNW 4.6 mph - N/A   Partly Cloudy
9:45 AM 80.6 °F 83.9 °F 69.8 °F 70% 30.04 in 10.0 mi West 5.8 mph - N/A   Partly Cloudy
10:45 AM 84.2 °F 87.3 °F 68.0 °F 58% 30.04 in 10.0 mi WSW 4.6 mph - N/A   Scattered Clouds
11:45 AM 84.2 °F 86.6 °F 66.2 °F 55% 30.04 in 10.0 mi WSW 9.2 mph 18.4 mph N/A   Scattered Clouds
12:45 PM 86.0 °F 89.4 °F 68.0 °F 55% 30.04 in 15.0 mi WSW 9.2 mph 17.3 mph N/A   Mostly Cloudy
1:45 PM 87.8 °F 91.4 °F 68.0 °F 52% 30.03 in 10.0 mi WSW 8.1 mph 17.3 mph N/A   Scattered Clouds
2:45 PM 87.8 °F 90.4 °F 66.2 °F 49% 30.01 in 15.0 mi West 11.5 mph 15.0 mph N/A   Scattered Clouds
3:45 PM 87.8 °F 90.4 °F 66.2 °F 49% 30.00 in 15.0 mi WSW 10.4 mph - N/A   Scattered Clouds
4:45 PM 87.8 °F 90.4 °F 66.2 °F 49% 29.99 in 15.0 mi West 11.5 mph - N/A   Scattered Clouds
5:45 PM 86.0 °F 88.2 °F 66.2 °F 51% 29.98 in 7.0 mi West 11.5 mph - N/A   Mostly Cloudy
6:49 PM 84.2 °F 87.3 °F 68.0 °F 58% 29.98 in 7.0 mi West 5.8 mph - N/A   Mostly Cloudy
8:45 PM 80.6 °F 83.2 °F 68.0 °F 65% 30.02 in 7.0 mi West 6.9 mph - N/A   Scattered Clouds
9:45 PM 78.8 °F - 68.0 °F 69% 30.05 in 7.0 mi West 6.9 mph - N/A   Scattered Clouds
10:55 PM 77.0 °F - 68.0 °F 74% 30.05 in 10.0 mi SW 3.5 mph - N/A   Clear
11:15 PM 77.0 °F - 68.0 °F 74% 30.05 in 10.0 mi Calm Calm - N/A   Clear
11:35 PM 75.2 °F - 68.0 °F 78% 30.05 in 10.0 mi Calm Calm - N/A   Clear
11:55 PM 75.2 °F - 68.0 °F 78% 30.05 in 10.0 mi South 3.5 mph - N/A   Clear